767 
ASUS46 KSEW 011010
RWRWA 

WASHINGTON REGIONAL WEATHER ROUNDUP
NATIONAL WEATHER SERVICE SEATTLE WA
300 AM PDT SAT NOV 01 2014

NOTE:"FAIR" INDICATES FEW OR NO CLOUDS BELOW 12,000 FEET WITH NO 
SIGNIFICANT WEATHER AND/OR OBSTRUCTIONS TO VISIBILITY.

WAZ505-507>509-011100-
SEATTLE, TACOMA, EVERETT, AND VICINITY
  
CITY           SKY/WX    TMP DP  RH WIND       PRES   REMARKS
EVERETT        FOG       43  42  97 N3        29.85F VSB 1            
BOEING FIELD   CLOUDY    51  48  89 CALM      29.84F                  
RENTON         CLOUDY    47  47 100 CALM      29.84F                  
SEATAC AIRPORT FOG       48  47  96 N3        29.85F VSB 1/4          
JBLM-MCCHORD   CLOUDY    46  46 100 N1        29.85F                  
PUYALLUP       NOT AVBL                                               
JBLM-FT LEWIS  CLOUDY    44  44  99 S1        29.84F                  
TACOMA NARROWS FOG       48  47  96 W3        29.84F VSB 1/2          
$$
 
WAZ001-503-506-510-514-515-011100-
NORTH INTERIOR
  
CITY           SKY/WX    TMP DP  RH WIND       PRES   REMARKS
BELLINGHAM     FOG       41  40  96 N3        29.87F VSB 1/4          
FRIDAY HARBOR  FOG       41  40  96 N5        29.88F VSB 1/2          
EASTSOUND      CLOUDY    46  46 100 CALM      29.86F FOG              
PORT ANGELES   CLEAR     43  40  89 SW8       29.87F                  
NAS WHIDBEY    FOG       45  42  89 E3        29.88S VSB 1/4          
BURLINGTON     MOCLDY   N/A N/A N/A CALM      29.88F                  
$$
 
WAZ020-022-039-040-504-511-512-011100-
SOUTHWEST INTERIOR
  
CITY           SKY/WX    TMP DP  RH WIND       PRES   REMARKS
SHELTON        MOCLDY    36  36 100 CALM      29.83F FOG              
OLYMPIA        FOG       46  46 100 CALM      29.85F VSB 1/2          
CHEHALIS       NOT AVBL                                               
KELSO          CLOUDY   N/A N/A N/A N3        29.89R                  
VANCOUVER      CLOUDY    45  43  93 NE3       29.84R                  
SCAPPOOSE, OR  FOG       45  45 100 CALM      29.84R VSB 1/4          
PORTLAND, OR   CLOUDY    45  45 100 N3        29.85S VSB 1/2          
$$
 
WAZ021-516-517-011100-
WASHINGTON COAST
  
CITY           SKY/WX    TMP DP  RH WIND       PRES   REMARKS
FORKS          CLEAR     40  40 100 E3        29.86F                  
HOQUIAM        PTCLDY    42  42 100 E7        29.85S FOG              
ASTORIA, OR    FOG       44  44 100 SE3       29.85R VSB 1/4          
$$
 
WAZ019-023-024-040-518-519-011100-
CASCADE MOUNTAINS AND COLUMBIA GORGE
  
CITY           SKY/WX    TMP DP  RH WIND       PRES   REMARKS
STAMPEDE PASS  NOT AVBL                                               
TROUTDALE, OR  CLOUDY    48  46  93 S3        29.83R                  
THE DALLES, OR MOCLDY    47  41  80 CALM      29.79R                  
$$

WAZ026-027-041>044-520-521-011100-
EAST SLOPES
  
CITY           SKY/WX    TMP DP  RH WIND       PRES   REMARKS
OMAK           CLOUDY    47  45  93 N7        29.78S                  
WENATCHEE      CLOUDY    48  37  65 NW9       29.76F                  
ELLENSBURG     CLOUDY    46  37  71 NW13      29.75F                  
YAKIMA         CLOUDY    41  38  89 W7        29.77F                  
$$

WAZ028-034-035-011100-
COLUMBIA BASIN
  
CITY           SKY/WX    TMP DP  RH WIND       PRES   REMARKS
EPHRATA        CLOUDY    47  45  93 N6        29.75S FOG              
MOSES LAKE     CLOUDY    44  43  96 N5        29.75F                  
PASCO          CLOUDY    48  46  93 E3        29.76F                  
HERMISTON, OR  CLOUDY    49  43  80 CALM      29.75F                  
$$

WAZ036>038-011100-
NORTHEAST WASHINGTON
  
CITY           SKY/WX    TMP DP  RH WIND       PRES   REMARKS
SPOKANE GEIGER LGT RAIN  45  43  93 S5        29.76F                  
SPOKANE FELTS  LGT RAIN  47  44  90 W3        29.77F                  
FAIRCHILD AFB  LGT RAIN  45  45 100 SW3       29.75F                  
COEURDALENE,ID CLOUDY    46  45  93 W7        29.75F                  
DEER PARK      CLOUDY    47  46  97 CALM      29.76F FOG              
$$

WAZ029>033-011100-
SOUTHEAST WASHINGTON
  
CITY           SKY/WX    TMP DP  RH WIND       PRES   REMARKS
PULLMAN        CLOUDY    45  41  86 NW6       29.77F                  
LEWISTON, ID   CLOUDY    51  43  74 CALM      29.75F                  
WALLA WALLA    CLOUDY    49  46  90 S3        29.76F                  
PENDLETON, OR  LGT RAIN  45  43  93 E6        29.74F                  
$$